Oski — WYD3004 — position and weather

sailwx.info

Track history (hours):
 
Tides and Currents Weather Stations Pressure Air Temp Water Temp Dewpoint Dewpoint Depression Visibility Wind Speed Wind Dir Waves Ship Positions

Oski

Owner: BLUE & GOLD FLEET, SAN FRANCISCO, CA. More information available from US FCC via Universal Licensing System and Coast Guard Vessel Documentation Center.

Last reported at 2017-Oct-22 02:25 UTC. Time now 2017-Oct-22 13:52 UTC.
Position N 37°49' W 122°25'.

Length 24 m; draft 2 m.

Type: Passenger vessel. MMSI: 366985320.

Date/timePositionNaut miles runAvg speedWind from/ knotsBaromVisibWave heightAir tempDewpointWater temp
2017-Oct-22 02:25N 37°49' W 122°25'2 5.4
2017-Oct-22 02:00N 37°49' W 122°27'2 4.5
2017-Oct-22 01:30N 37°49' W 122°25'0 0.0
2017-Oct-22 01:00N 37°49' W 122°25'0 0.0
2017-Oct-22 00:30N 37°49' W 122°25'0 0.0
2017-Oct-22 00:00N 37°49' W 122°25'0 0.0
2017-Oct-21 23:30N 37°49' W 122°25'  
2017-Oct-18 22:04N 37°49' W 122°25'0 0.0
2017-Oct-18 22:00N 37°49' W 122°25'2 4.5
2017-Oct-18 21:30N 37°47' W 122°22'0 0.5
2017-Oct-18 21:00N 37°47' W 122°23'1 2.8
2017-Oct-18 20:30N 37°48' W 122°24'1 1.5
2017-Oct-18 20:00N 37°49' W 122°25'0 0.0
2017-Oct-18 19:30N 37°49' W 122°25'0 0.0
2017-Oct-18 19:00N 37°49' W 122°25'0 0.0
2017-Oct-18 18:30N 37°49' W 122°25'0 0.0
2017-Oct-18 17:07N 37°49' W 122°25'0 0.0
2017-Oct-18 17:00N 37°49' W 122°25'0 0.0
2017-Oct-18 16:30N 37°49' W 122°25'0 0.0
2017-Oct-17 02:27N 37°49' W 122°25'2 5.3
2017-Oct-17 02:00N 37°49' W 122°27'2 4.7
2017-Oct-17 01:30N 37°49' W 122°25'0 0.0
2017-Oct-17 01:00N 37°49' W 122°25'0 0.0
2017-Oct-17 00:30N 37°49' W 122°25'2 4.3
2017-Oct-17 00:01N 37°49' W 122°27'2 4.3
2017-Oct-16 23:30N 37°49' W 122°25'1 1.9
2017-Oct-16 23:00N 37°49' W 122°25'2 3.9
2017-Oct-16 22:31N 37°49' W 122°27'2 1.7
2017-Oct-16 21:12N 37°49' W 122°25'1 6.0
2017-Oct-16 21:00N 37°50' W 122°25'2 4.2
2017-Oct-16 20:30N 37°49' W 122°28'2 4.8
2017-Oct-16 20:00N 37°49' W 122°25'1 1.5
2017-Oct-16 19:30N 37°49' W 122°25'2 4.2
2017-Oct-16 19:00N 37°49' W 122°27'2 4.4
2017-Oct-16 18:30N 37°49' W 122°25'0 0.0
2017-Oct-16 02:25N 37°49' W 122°25'3 6.4
2017-Oct-16 02:00N 37°49' W 122°28'3 5.3
2017-Oct-16 01:31N 37°49' W 122°25'0 0.0
2017-Oct-16 01:01N 37°49' W 122°25'0 0.0
2017-Oct-16 00:31N 37°49' W 122°25'2 4.3
2017-Oct-16 00:01N 37°49' W 122°27'2 4.3
2017-Oct-15 23:31N 37°49' W 122°25'1 1.1
2017-Oct-15 23:01N 37°49' W 122°25'2 3.6
2017-Oct-15 22:31N 37°49' W 122°27'2 3.9
2017-Oct-15 22:01N 37°49' W 122°25'0 0.0
2017-Oct-15 21:31N 37°49' W 122°25'2 3.2
2017-Oct-15 21:01N 37°50' W 122°26'1 2.5
2017-Oct-15 20:31N 37°49' W 122°27'2 3.7
2017-Oct-15 20:00N 37°49' W 122°25'1 2.9
2017-Oct-15 19:31N 37°50' W 122°26'2 5.0
2017-Oct-15 19:01N 37°49' W 122°29'3 6.3
2017-Oct-15 18:30N 37°49' W 122°25'0 0.0
2017-Oct-15 02:23N 37°49' W 122°25'2 6.1
2017-Oct-15 02:00N 37°49' W 122°27'2 4.6
2017-Oct-15 01:30N 37°49' W 122°25'0 0.0
2017-Oct-15 01:00N 37°49' W 122°25'0 0.0
2017-Oct-15 00:30N 37°49' W 122°25'2 4.2
2017-Oct-14 23:59N 37°49' W 122°27'2 4.6
2017-Oct-14 23:30N 37°49' W 122°25'0 0.6
2017-Oct-14 23:00N 37°49' W 122°24'2 4.7
2017-Oct-14 22:30N 37°49' W 122°27'2 4.2
2017-Oct-14 22:00N 37°49' W 122°25'0 0.0
2017-Oct-14 21:25N 37°49' W 122°25'2 3.8
2017-Oct-14 21:00N 37°50' W 122°26'1 2.5
2017-Oct-14 20:30N 37°49' W 122°27'2 3.3
2017-Oct-14 19:58N 37°49' W 122°25'1 3.1
2017-Oct-14 19:30N 37°50' W 122°25'3 5.1
2017-Oct-14 19:00N 37°49' W 122°29'3 5.8
2017-Oct-14 18:27N 37°49' W 122°25'0 0.0
2017-Oct-14 02:43N 37°49' W 122°25'0 1.6
2017-Oct-14 02:30N 37°49' W 122°24'511.0
2017-Oct-14 02:01N 37°48' W 122°18'1 2.8
2017-Oct-14 01:30N 37°48' W 122°19'3 5.6
2017-Oct-14 01:01N 37°48' W 122°23'2 4.5
2017-Oct-14 00:31N 37°48' W 122°20'2 4.1
2017-Oct-14 00:01N 37°48' W 122°18'4 7.9
2017-Oct-13 23:30N 37°48' W 122°23'2 3.4
2017-Oct-13 23:01N 37°49' W 122°25'0 0.0
2017-Oct-12 22:54N 37°49' W 122°25'2 5.0
2017-Oct-12 22:30N 37°50' W 122°26'2 4.8
2017-Oct-12 22:00N 37°52' W 122°27'1 1.3
2017-Oct-12 21:30N 37°52' W 122°27'4 7.3
2017-Oct-12 21:00N 37°49' W 122°25'0 0.0
2017-Oct-12 20:30N 37°49' W 122°25'0 0.2
2017-Oct-12 20:00N 37°49' W 122°25'0 0.3
2017-Oct-12 19:30N 37°49' W 122°25'0 0.0
2017-Oct-12 19:00N 37°49' W 122°25'0 0.7
2017-Oct-12 18:30N 37°49' W 122°25'4 8.2
2017-Oct-12 18:00N 37°52' W 122°27'0 0.9
2017-Oct-12 17:30N 37°52' W 122°27'4 7.9
2017-Oct-12 17:00N 37°49' W 122°25'0 0.0
2017-Oct-12 16:30N 37°49' W 122°25'0 0.0
2017-Oct-12 16:00N 37°49' W 122°25'0 0.0
2017-Oct-12 15:30N 37°49' W 122°25'0 0.0
2017-Oct-12 15:00N 37°49' W 122°25'0 0.0
2017-Oct-12 14:30N 37°49' W 122°25'  
Track history (hours):
 
Tides and Currents Weather Stations Pressure Air Temp Water Temp Dewpoint Dewpoint Depression Visibility Wind Speed Wind Dir Waves Ship Positions

Oski

Owner: BLUE & GOLD FLEET, SAN FRANCISCO, CA. More information available from US FCC via Universal Licensing System and Coast Guard Vessel Documentation Center.

Last reported at 2017-Oct-22 02:25 UTC. Time now 2017-Oct-22 13:52 UTC.
Position N 37°49' W 122°25'.

Length 24 m; draft 2 m.

Type: Passenger vessel. MMSI: 366985320.

Date/timePositionNaut miles runAvg speedWind from/ knotsBaromVisibWave heightAir tempDewpointWater temp
2017-Oct-22 02:25N 37°49' W 122°25'2 5.4
2017-Oct-22 02:00N 37°49' W 122°27'2 4.5
2017-Oct-22 01:30N 37°49' W 122°25'0 0.0
2017-Oct-22 01:00N 37°49' W 122°25'0 0.0
2017-Oct-22 00:30N 37°49' W 122°25'0 0.0
2017-Oct-22 00:00N 37°49' W 122°25'0 0.0
2017-Oct-21 23:30N 37°49' W 122°25'  
2017-Oct-18 22:04N 37°49' W 122°25'0 0.0
2017-Oct-18 22:00N 37°49' W 122°25'2 4.5
2017-Oct-18 21:30N 37°47' W 122°22'0 0.5
2017-Oct-18 21:00N 37°47' W 122°23'1 2.8
2017-Oct-18 20:30N 37°48' W 122°24'1 1.5
2017-Oct-18 20:00N 37°49' W 122°25'0 0.0
2017-Oct-18 19:30N 37°49' W 122°25'0 0.0
2017-Oct-18 19:00N 37°49' W 122°25'0 0.0
2017-Oct-18 18:30N 37°49' W 122°25'0 0.0
2017-Oct-18 17:07N 37°49' W 122°25'0 0.0
2017-Oct-18 17:00N 37°49' W 122°25'0 0.0
2017-Oct-18 16:30N 37°49' W 122°25'0 0.0
2017-Oct-17 02:27N 37°49' W 122°25'2 5.3
2017-Oct-17 02:00N 37°49' W 122°27'2 4.7
2017-Oct-17 01:30N 37°49' W 122°25'0 0.0
2017-Oct-17 01:00N 37°49' W 122°25'0 0.0
2017-Oct-17 00:30N 37°49' W 122°25'2 4.3
2017-Oct-17 00:01N 37°49' W 122°27'2 4.3
2017-Oct-16 23:30N 37°49' W 122°25'1 1.9
2017-Oct-16 23:00N 37°49' W 122°25'2 3.9
2017-Oct-16 22:31N 37°49' W 122°27'2 1.7
2017-Oct-16 21:12N 37°49' W 122°25'1 6.0
2017-Oct-16 21:00N 37°50' W 122°25'2 4.2
2017-Oct-16 20:30N 37°49' W 122°28'2 4.8
2017-Oct-16 20:00N 37°49' W 122°25'1 1.5
2017-Oct-16 19:30N 37°49' W 122°25'2 4.2
2017-Oct-16 19:00N 37°49' W 122°27'2 4.4
2017-Oct-16 18:30N 37°49' W 122°25'0 0.0
2017-Oct-16 02:25N 37°49' W 122°25'3 6.4
2017-Oct-16 02:00N 37°49' W 122°28'3 5.3
2017-Oct-16 01:31N 37°49' W 122°25'0 0.0
2017-Oct-16 01:01N 37°49' W 122°25'0 0.0
2017-Oct-16 00:31N 37°49' W 122°25'2 4.3
2017-Oct-16 00:01N 37°49' W 122°27'2 4.3
2017-Oct-15 23:31N 37°49' W 122°25'1 1.1
2017-Oct-15 23:01N 37°49' W 122°25'2 3.6
2017-Oct-15 22:31N 37°49' W 122°27'2 3.9
2017-Oct-15 22:01N 37°49' W 122°25'0 0.0
2017-Oct-15 21:31N 37°49' W 122°25'2 3.2
2017-Oct-15 21:01N 37°50' W 122°26'1 2.5
2017-Oct-15 20:31N 37°49' W 122°27'2 3.7
2017-Oct-15 20:00N 37°49' W 122°25'1 2.9
2017-Oct-15 19:31N 37°50' W 122°26'2 5.0
2017-Oct-15 19:01N 37°49' W 122°29'3 6.3
2017-Oct-15 18:30N 37°49' W 122°25'0 0.0
2017-Oct-15 02:23N 37°49' W 122°25'2 6.1
2017-Oct-15 02:00N 37°49' W 122°27'2 4.6
2017-Oct-15 01:30N 37°49' W 122°25'0 0.0
2017-Oct-15 01:00N 37°49' W 122°25'0 0.0
2017-Oct-15 00:30N 37°49' W 122°25'2 4.2
2017-Oct-14 23:59N 37°49' W 122°27'2 4.6
2017-Oct-14 23:30N 37°49' W 122°25'0 0.6
2017-Oct-14 23:00N 37°49' W 122°24'2 4.7
2017-Oct-14 22:30N 37°49' W 122°27'2 4.2
2017-Oct-14 22:00N 37°49' W 122°25'0 0.0
2017-Oct-14 21:25N 37°49' W 122°25'2 3.8
2017-Oct-14 21:00N 37°50' W 122°26'1 2.5
2017-Oct-14 20:30N 37°49' W 122°27'2 3.3
2017-Oct-14 19:58N 37°49' W 122°25'1 3.1
2017-Oct-14 19:30N 37°50' W 122°25'3 5.1
2017-Oct-14 19:00N 37°49' W 122°29'3 5.8
2017-Oct-14 18:27N 37°49' W 122°25'0 0.0
2017-Oct-14 02:43N 37°49' W 122°25'0 1.6
2017-Oct-14 02:30N 37°49' W 122°24'511.0
2017-Oct-14 02:01N 37°48' W 122°18'1 2.8
2017-Oct-14 01:30N 37°48' W 122°19'3 5.6
2017-Oct-14 01:01N 37°48' W 122°23'2 4.5
2017-Oct-14 00:31N 37°48' W 122°20'2 4.1
2017-Oct-14 00:01N 37°48' W 122°18'4 7.9
2017-Oct-13 23:30N 37°48' W 122°23'2 3.4
2017-Oct-13 23:01N 37°49' W 122°25'0 0.0
2017-Oct-12 22:54N 37°49' W 122°25'2 5.0
2017-Oct-12 22:30N 37°50' W 122°26'2 4.8
2017-Oct-12 22:00N 37°52' W 122°27'1 1.3
2017-Oct-12 21:30N 37°52' W 122°27'4 7.3
2017-Oct-12 21:00N 37°49' W 122°25'0 0.0
2017-Oct-12 20:30N 37°49' W 122°25'0 0.2
2017-Oct-12 20:00N 37°49' W 122°25'0 0.3
2017-Oct-12 19:30N 37°49' W 122°25'0 0.0
2017-Oct-12 19:00N 37°49' W 122°25'0 0.7
2017-Oct-12 18:30N 37°49' W 122°25'4 8.2
2017-Oct-12 18:00N 37°52' W 122°27'0 0.9
2017-Oct-12 17:30N 37°52' W 122°27'4 7.9
2017-Oct-12 17:00N 37°49' W 122°25'0 0.0
2017-Oct-12 16:30N 37°49' W 122°25'0 0.0
2017-Oct-12 16:00N 37°49' W 122°25'0 0.0
2017-Oct-12 15:30N 37°49' W 122°25'0 0.0
2017-Oct-12 15:00N 37°49' W 122°25'0 0.0
2017-Oct-12 14:30N 37°49' W 122°25'  

Dump ship's entire track history